Torna al catalogo

COSMOS 1823 DEB

AttivoLEO
NORAD 18752·DEBRIS·🇷🇺 Russia

Lanciato Feb 20, 1987 da Plesetsk Cosmodrome

Loading…

Prossimi Passaggi (prossime 24 ore)

TLE

AggiornatoSource: Space-Track

Epoca: Sep 14, 2026, 07:02 UTC

1 18752U 87020AD  26257.29365098  .00000007  00000-0  13752-3 0  9992
2 18752  73.9237  13.1379 0059447 174.8944 211.7320 12.60395660780690

Traccia COSMOS 1823 DEB in tempo reale con AllMySat

Download on the App Store